Vorticity
6 6 5 5 5 4 5 6 8 9 8 10 12 11 9 8 8 8 9 11 13 15 15 13 11 10 10 10 11 12 13 13 12 11 10 10 11 11 12 11 10 8 8 9 11 11 10 9 9 9 9 10 11 12 11 11 11 10 9 9 8 8 8 8 9 9 8 8 8 7 6 7 7 7 7 6 5 5 6 7 8 9 10 11 11
7 7 7 7 7 6 6 7 8 9 9 11 13 11 9 8 8 10 12 13 15 15 13 11 10 11 11 12 13 13 13 12 10 10 11 11 12 12 11 9 9 9 10 11 11 9 9 9 9 9 10 12 13 13 12 10 9 8 8 8 8 8 8 8 8 8 7 6 5 5 5 5 5 6 7 7 7 8 9 9 10 11 12 14 15
8 8 8 8 8 7 6 7 8 9 11 13 14 12 9 8 10 13 15 14 14 13 12 11 12 12 13 13 13 12 11 10 11 11 12 12 11 11 11 10 10 10 10 10 9 9 9 9 10 12 13 14 13 11 10 9 8 8 8 8 7 6 6 5 5 5 5 4 4 5 5 5 6 7 8 10 10 11 12 14 15 16 18 19 21
7 7 7 7 7 7 6 7 9 10 12 14 14 11 9 10 13 15 15 13 13 13 14 14 13 13 13 12 11 10 11 11 12 11 11 11 11 11 12 11 10 10 10 10 9 9 10 11 13 14 13 11 10 9 8 8 8 7 6 5 4 3 3 3 4 5 5 6 5 6 7 8 9 10 12 14 16 16 18 21 24 26 29 30 32
6 7 7 7 8 7 7 8 10 12 14 14 12 9 10 13 16 15 14 14 14 14 14 13 12 11 11 10 10 11 11 11 11 11 11 10 11 12 12 10 10 9 9 9 9 10 12 12 12 11 10 9 9 8 7 5 4 3 3 3 3 4 5 5 6 6 7 8 8 9 11 13 15 17 19 22 25 27 28 30 33 37 38 38 36
6 6 8 9 8 7 8 9 12 14 15 13 10 11 14 17 17 16 15 14 13 13 12 11 11 10 9 10 10 10 10 10 10 10 11 11 12 12 11 9 8 8 9 10 11 11 11 10 10 10 9 8 6 4 2 2 2 3 4 4 5 6 7 8 9 11 12 13 15 17 19 22 25 27 29 30 32 34 36 38 40 38 34 29 25
7 8 10 10 8 8 10 12 15 16 14 12 13 16 19 19 17 16 14 12 11 11 11 11 10 10 9 10 10 10 10 10 11 11 11 12 12 10 8 8 8 10 11 12 11 9 9 10 10 8 6 3 1 1 1 3 4 5 5 7 8 10 12 14 15 17 19 21 23 25 27 29 31 33 34 33 34 36 39 39 34 27 22 19 18
9 10 11 9 8 10 13 16 16 15 14 14 17 20 20 18 15 13 11 10 10 11 10 10 10 10 10 11 11 11 11 11 11 12 12 12 10 8 8 10 11 11 10 9 9 9 10 10 7 3 0 0 1 3 4 5 6 8 11 13 15 17 19 20 22 23 25 26 28 30 31 31 32 33 33 34 36 37 33 27 21 18 18 17 17
11 11 10 9 10 14 16 17 16 15 16 19 21 20 17 14 12 11 10 10 10 10 10 10 10 11 11 11 11 11 11 11 11 12 12 11 10 9 11 11 10 8 8 9 10 11 9 5 1 -0 1 2 3 5 7 9 13 16 19 20 21 22 23 24 26 27 28 29 30 30 29 30 31 32 33 34 33 28 21 17 17 17 16 14 15
13 11 9 11 14 17 17 16 16 18 21 21 19 16 13 11 11 11 10 10 10 10 10 9 10 10 10 10 11 11 11 12 12 13 12 11 10 10 9 8 7 8 10 11 11 8 4 1 1 2 3 4 6 10 14 17 20 22 23 24 25 26 27 28 29 28 28 27 27 27 27 29 31 32 31 28 23 17 15 16 16 14 12 13 15
10 9 11 15 17 17 17 18 20 21 20 17 13 12 11 11 11 10 10 10 10 10 9 9 9 9 10 11 11 12 12 12 13 13 11 9 8 8 7 8 9 10 11 10 7 4 2 2 4 3 5 9 15 19 21 23 25 27 28 29 29 28 28 27 25 24 24 24 25 25 27 28 29 29 26 20 15 14 14 14 13 12 11 11 13
8 11 15 17 17 17 19 21 21 18 15 12 11 11 11 10 9 10 10 10 10 10 9 9 10 11 12 12 12 12 12 13 12 10 8 7 7 8 9 10 10 10 9 7 5 4 4 4 4 7 13 19 21 23 25 28 30 30 29 27 25 23 22 21 21 22 23 24 25 25 25 27 28 24 18 14 13 13 13 12 11 11 10 9 11
11 15 17 17 18 21 21 19 16 13 11 10 10 10 10 9 10 10 10 10 10 10 9 10 11 12 12 13 13 12 12 11 9 7 7 8 9 9 9 9 9 9 8 6 6 6 6 6 11 18 22 22 24 27 30 30 28 25 22 20 20 20 20 21 22 24 25 24 24 23 23 28 26 17 13 13 13 11 10 10 10 8 8 9 9
15 17 18 20 22 20 17 14 12 11 10 10 9 9 9 10 10 10 10 10 10 9 10 11 12 13 13 13 12 11 10 8 7 8 9 9 9 9 9 8 9 8 7 8 7 5 7 15 22 24 22 24 29 31 28 24 20 18 17 17 19 20 22 22 22 24 26 27 26 23 21 23 20 14 13 12 10 9 9 9 9 7 7 8 8
17 18 20 21 19 15 13 12 11 10 10 10 9 10 10 10 11 11 10 10 9 10 11 13 13 14 13 12 10 9 8 8 9 9 9 9 9 8 8 9 9 9 9 9 7 9 18 26 26 21 23 29 30 25 20 17 15 15 15 16 17 19 20 21 21 23 26 28 29 25 20 17 12 9 11 11 9 9 9 8 8 7 6 7 9
18 20 21 17 13 12 12 11 10 10 10 10 10 10 11 11 10 10 10 9 10 12 13 13 14 13 10 9 8 8 8 9 9 9 9 9 9 8 9 9 9 9 9 7 11 21 30 28 20 20 27 29 24 18 16 14 13 14 16 16 17 17 18 18 18 20 22 23 24 21 17 14 11 8 8 8 8 9 9 9 9 8 7 8 10
20 21 17 13 11 12 11 10 9 9 9 10 11 11 11 10 9 10 10 11 12 13 13 13 12 10 8 8 8 8 9 10 9 9 10 10 10 10 9 9 9 8 8 14 25 31 27 20 18 24 27 22 16 14 13 11 12 15 17 17 16 15 17 17 15 16 17 18 18 17 14 13 12 11 9 8 7 6 7 8 9 9 9 9 10
22 17 12 10 11 11 10 9 9 10 10 11 11 10 9 9 10 10 11 12 13 13 12 11 10 8 8 8 9 10 10 10 10 11 10 10 10 9 8 8 10 11 18 28 33 26 17 16 21 25 22 17 13 12 11 11 12 13 15 16 16 17 19 16 12 11 12 12 12 13 13 13 12 11 11 11 10 8 7 7 8 8 9 9 10
16 10 9 11 11 10 10 9 9 11 11 11 10 10 9 9 10 11 12 13 13 12 11 10 8 8 9 9 10 11 11 11 11 10 9 9 8 8 11 14 16 22 32 33 25 16 15 20 23 21 18 14 12 11 11 10 10 11 12 14 15 17 18 14 12 11 10 9 8 8 9 10 11 11 10 10 10 10 9 10 9 8 8 8 8
10 8 11 13 12 10 10 10 11 11 10 10 9 9 10 10 11 12 12 12 11 11 10 8 8 9 10 11 11 11 12 11 9 8 8 8 10 14 18 20 25 33 34 24 14 14 18 20 20 18 15 13 12 11 10 9 9 11 11 12 13 14 13 13 13 13 12 10 10 8 6 7 8 9 9 9 9 9 9 9 9 8 9 9 8
9 11 13 13 11 11 10 10 10 10 9 10 10 10 10 11 12 12 12 11 10 9 8 8 9 10 11 12 12 12 11 8 6 7 7 9 15 19 20 25 34 34 23 13 13 18 18 18 19 16 13 11 11 10 9 9 9 10 10 11 12 11 11 11 12 13 13 13 13 11 9 8 6 6 7 8 8 8 8 8 8 8 8 9 10
12 12 12 11 11 11 10 10 10 10 10 10 10 10 11 11 12 11 11 9 9 9 9 10 11 11 11 12 12 12 9 4 3 5 7 12 19 20 23 32 35 23 11 11 16 17 16 17 18 14 11 10 10 10 10 9 9 10 11 10 10 9 9 10 10 11 12 12 12 12 11 10 8 8 7 8 8 8 8 8 8 8 8 8 9
12 12 11 11 11 11 10 10 10 10 10 11 10 10 11 11 11 10 9 9 9 9 10 11 11 11 12 12 13 11 6 4 4 6 9 16 20 22 30 35 25 11 9 15 17 16 16 17 15 12 10 10 10 10 10 10 10 10 10 9 8 8 9 9 10 10 10 10 10 11 12 12 11 10 10 9 9 9 9 9 9 8 9 9 8
12 12 12 11 11 11 10 10 11 11 11 11 10 10 10 10 10 9 9 9 10 10 11 11 10 11 13 13 13 11 7 6 7 8 13 18 22 29 36 28 13 7 12 16 16 16 16 14 13 12 11 11 11 11 11 10 10 9 8 8 8 8 9 10 10 10 11 11 11 12 12 12 12 12 12 11 11 10 10 11 11 11 10 10 9
12 12 12 11 11 11 10 11 11 11 11 10 10 10 10 10 9 9 9 10 11 11 11 11 11 12 13 14 12 10 9 9 9 11 15 19 27 36 33 17 7 9 14 15 16 16 14 12 12 12 11 12 12 11 10 9 8 7 8 8 7 8 8 9 9 8 9 10 10 11 11 11 11 11 11 11 10 11 12 12 12 12 11 11 11
11 11 11 12 11 11 11 11 10 10 10 11 10 10 9 9 9 9 10 10 10 11 11 12 13 13 13 13 11 10 11 11 12 13 16 23 35 37 24 9 6 10 13 15 16 15 13 13 13 12 12 12 10 9 8 8 8 8 8 7 7 7 7 7 7 7 7 7 7 8 8 9 9 9 9 9 9 10 11 10 10 11 11 11 11
11 11 11 12 11 10 11 10 11 11 10 10 10 9 9 10 9 9 10 10 10 11 12 13 14 13 13 13 12 12 12 11 13 16 20 30 39 32 14 5 8 12 14 16 15 13 14 14 13 13 12 10 9 8 8 7 8 8 7 7 7 7 6 6 6 6 6 7 7 7 7 7 7 8 8 8 8 8 8 9 9 10 11 11 10
11 11 11 11 10 10 11 10 10 11 10 9 9 9 9 10 9 9 10 10 11 12 13 14 14 13 13 14 12 11 11 12 16 20 24 34 38 25 8 5 10 12 13 14 13 13 14 13 12 12 10 9 9 8 7 7 7 7 6 7 7 6 6 6 6 7 7 7 6 7 7 7 7 8 7 7 8 8 8 8 8 9 9 9 10
11 11 10 11 11 11 11 10 10 9 9 9 9 9 9 9 9 9 10 11 13 13 13 13 13 13 14 13 10 10 12 17 21 23 27 35 34 19 7 7 11 12 12 12 12 13 13 11 11 10 9 8 8 7 7 8 7 6 7 7 6 7 7 6 7 8 8 7 7 7 8 7 8 8 8 8 8 9 9 8 8 8 8 8 8
11 11 11 11 11 10 10 10 9 9 8 9 9 9 9 9 9 10 11 12 13 13 13 13 13 13 13 10 9 12 17 22 24 25 29 35 30 15 7 8 10 12 14 13 12 12 12 10 9 8 8 8 8 7 7 7 6 7 8 7 7 8 7 8 9 9 8 7 8 8 8 8 9 9 9 9 9 9 9 9 9 9 9 9 10
11 11 11 11 10 9 9 9 8 8 8 8 8 8 8 8 10 12 13 13 13 13 14 14 14 13 11 8 10 17 22 24 26 28 31 32 25 13 7 7 8 11 12 11 11 11 11 11 10 9 9 8 8 8 7 7 7 8 8 7 8 8 8 9 9 9 8 8 8 9 9 8 8 8 9 9 8 9 9 10 10 11 11 11 11
11 10 11 10 9 9 9 8 8 8 8 9 9 9 8 9 11 12 13 14 14 13 14 14 13 12 10 9 14 20 23 26 29 31 32 28 20 13 11 10 11 12 12 11 11 12 11 11 11 10 10 9 8 9 8 8 9 9 9 9 9 9 9 10 9 8 9 9 9 8 8 8 8 8 9 9 9 10 10 10 11 11 11 11 12
10 11 10 10 9 8 8 8 8 8 8 9 9 9 9 10 11 11 12 13 14 14 15 14 12 9 9 12 18 22 24 26 30 32 30 24 17 13 12 13 14 15 14 14 15 14 13 12 11 10 10 10 10 9 9 9 9 9 9 9 9 10 10 10 9 9 10 10 9 9 9 9 9 10 10 10 11 11 11 12 12 13 13 13 13
11 11 10 9 8 8 7 8 8 8 8 9 9 9 10 11 11 11 11 12 13 14 15 14 12 10 11 15 20 24 26 29 31 31 28 23 17 12 10 11 12 13 13 14 15 15 14 14 13 12 12 12 11 11 10 9 9 8 8 8 9 9 9 9 8 8 8 8 8 9 10 11 11 11 12 12 12 13 13 14 14 15 15 16 15
11 10 8 7 7 7 8 8 8 7 8 9 10 10 10 10 11 12 12 12 12 12 13 12 11 11 13 18 23 28 30 32 31 26 21 18 16 13 11 11 12 12 12 13 14 14 14 14 13 13 12 11 10 9 9 9 8 8 9 9 9 8 8 7 7 6 6 7 8 9 11 12 12 14 14 14 15 15 15 15 16 16 16 16 16
9 8 7 7 7 8 8 8 7 8 9 9 10 10 10 10 10 11 12 13 14 13 12 11 11 11 15 21 28 32 33 29 24 18 14 14 15 14 14 15 14 13 13 13 13 13 13 12 11 10 9 8 7 7 7 8 8 8 8 8 8 7 6 6 7 8 9 12 14 15 17 17 18 18 18 18 18 17 17 17 17 17 17 17 17
8 6 7 7 7 7 7 7 7 8 9 10 10 10 10 11 11 11 12 13 14 14 13 12 11 14 19 25 30 32 29 21 14 13 13 14 15 16 17 17 17 17 16 14 12 11 9 8 7 7 7 7 7 7 7 8 8 8 8 7 6 6 7 9 11 14 16 18 20 21 21 22 22 21 21 21 21 21 20 19 18 17 17 17 17
7 7 7 7 6 7 7 7 9 9 9 10 10 10 10 10 10 10 12 12 13 13 13 12 13 17 22 27 30 27 21 14 11 13 15 15 16 17 17 17 16 16 13 11 9 7 6 6 6 6 6 7 7 7 8 8 7 7 6 7 8 11 14 16 18 19 20 21 21 21 21 20 19 18 18 18 19 19 20 20 19 19 18 17 16
7 7 7 6 7 8 8 8 9 9 9 10 10 9 10 10 9 10 11 12 12 13 13 13 15 19 25 27 26 22 15 12 12 14 15 15 15 15 14 13 12 10 8 7 7 7 6 6 6 6 6 7 8 8 8 7 7 7 9 11 15 17 19 20 20 20 20 19 18 17 17 16 16 16 16 16 17 17 17 19 19 20 19 19 18
7 7 7 7 7 8 8 9 9 9 10 10 10 10 10 10 10 10 10 11 12 14 14 13 16 21 26 26 23 18 13 12 13 14 14 14 14 12 11 10 8 8 8 7 8 8 7 7 6 6 7 8 8 8 8 9 10 13 16 18 20 21 21 21 20 18 17 17 16 17 18 18 19 19 20 19 19 19 18 18 19 19 20 20 20
8 7 7 8 8 8 8 9 9 10 10 10 10 10 10 10 10 10 10 11 14 15 15 14 17 23 27 24 18 14 11 12 13 13 13 12 11 9 9 8 7 8 8 8 8 8 8 7 7 7 8 8 8 8 10 13 16 19 20 21 21 20 19 18 17 17 18 20 21 23 24 25 26 26 26 26 25 24 23 22 21 20 20 21 21
7 7 8 8 7 8 8 8 9 10 10 10 11 11 11 10 10 10 10 12 15 16 14 13 17 25 27 20 13 11 11 12 12 12 11 10 8 7 7 8 8 8 8 8 8 8 7 7 8 8 8 9 10 12 16 19 21 21 21 20 18 18 18 18 20 22 24 26 28 28 28 29 29 29 29 29 28 27 26 25 23 22 21 21 21
8 8 8 8 8 8 9 9 9 10 10 11 12 11 11 10 10 10 11 13 15 15 13 12 18 27 26 17 11 10 11 11 11 10 8 7 7 7 7 8 8 9 9 8 8 7 8 8 9 10 11 14 17 20 22 23 22 20 19 18 18 20 23 25 26 27 28 29 30 30 29 29 29 28 27 28 28 28 28 27 26 25 23 22 22
8 8 9 9 9 9 9 9 10 10 11 11 11 10 10 11 11 11 13 15 15 14 11 12 21 28 24 15 10 10 11 11 10 9 7 7 7 8 8 9 9 9 9 8 8 8 9 10 11 14 18 21 23 24 22 20 18 17 18 21 24 26 28 29 29 29 29 29 29 28 27 27 27 28 27 27 27 28 28 28 27 26 25 23 23
8 9 9 9 9 9 9 10 11 11 11 11 11 11 11 12 12 12 14 14 13 11 11 15 24 29 24 15 11 11 11 10 9 7 7 7 8 8 9 10 10 9 8 8 9 9 11 13 17 21 25 25 23 20 18 17 19 21 24 27 29 29 30 30 30 29 29 28 27 27 27 26 26 27 27 27 27 28 29 28 27 27 26 24 23
9 9 9 9 9 10 11 11 12 12 12 12 13 12 13 13 12 12 13 12 11 11 14 20 27 30 23 15 11 12 11 9 8 8 8 7 8 9 10 10 10 8 8 9 10 12 15 20 24 26 25 21 17 17 18 20 24 27 29 30 31 30 29 30 29 29 29 28 28 28 28 27 27 27 27 27 28 28 29 29 27 26 26 24 23
9 9 9 9 10 11 12 11 12 13 13 13 13 13 13 12 11 11 11 11 12 16 21 26 30 29 22 14 11 11 10 8 8 8 7 7 9 11 11 9 8 8 9 10 13 18 23 26 26 23 19 16 16 19 23 26 28 30 31 31 30 29 29 29 30 30 30 29 28 29 29 29 28 27 26 27 27 28 28 28 26 25 25 25 23
9 9 10 11 12 12 12 12 13 13 12 12 12 11 11 11 12 12 14 17 21 26 28 30 31 27 18 11 10 10 10 9 8 7 7 9 11 11 10 8 8 9 11 14 20 25 27 25 21 17 15 17 20 24 27 29 31 31 30 30 29 28 29 30 30 30 30 30 29 29 30 29 28 27 26 27 28 28 27 26 25 25 25 24 23
10 11 11 11 11 12 12 13 14 13 13 14 15 15 17 19 20 22 26 29 31 30 30 30 29 22 13 10 11 11 8 7 7 7 10 12 11 9 8 8 9 11 15 21 26 27 24 19 16 15 17 20 25 28 30 31 31 30 28 28 29 29 30 30 30 31 31 31 30 29 29 29 27 26 26 27 28 27 26 25 24 24 23 23 23
11 11 11 12 14 16 18 18 19 20 21 22 24 26 28 30 31 32 34 33 30 29 30 29 23 14 10 10 11 9 6 6 8 10 12 12 9 8 8 9 10 15 22 27 27 23 18 15 15 17 20 24 27 30 31 31 30 27 27 28 29 29 29 30 31 32 32 31 30 30 29 28 27 27 27 27 27 26 25 24 23 23 22 22 22
11 14 17 20 21 21 22 23 25 26 27 29 31 33 33 33 33 33 31 28 28 29 29 22 14 9 10 10 8 6 7 9 11 12 12 9 8 8 9 10 15 22 27 27 23 18 15 15 16 19 22 26 29 31 32 30 27 26 27 28 28 29 29 30 30 30 30 30 29 29 28 27 27 27 26 26 25 24 23 23 22 22 22 22 23
Height
5534 5532 5529 5526 5523 5520 5517 5514 5510 5506 5503 5499 5495 5492 5488 5484 5480 5477 5472 5469 5467 5465 5463 5460 5457 5455 5452 5449 5447 5444 5441 5439 5436 5433 5431 5428 5425 5423 5420 5418 5416 5415 5413 5412 5411 5409 5407 5404 5402 5400 5397 5394 5391 5388 5385 5381 5378 5376 5373 5371 5369 5366 5364 5362 5362 5368 5369 5364 5358 5355 5354 5353 5352 5350 5349 5350 5349 5347 5347 5346 5345 5344 5344 5343 5343
5526 5523 5520 5516 5514 5511 5507 5504 5500 5496 5493 5489 5486 5482 5478 5474 5470 5466 5462 5459 5458 5456 5453 5450 5447 5444 5441 5439 5436 5434 5431 5429 5426 5423 5421 5418 5415 5413 5411 5408 5406 5405 5403 5401 5400 5397 5395 5393 5391 5388 5385 5382 5380 5376 5373 5370 5366 5364 5361 5359 5357 5355 5351 5349 5348 5351 5354 5352 5345 5340 5340 5340 5339 5335 5333 5334 5334 5332 5332 5331 5329 5328 5327 5326 5326
5516 5513 5510 5506 5503 5500 5497 5494 5490 5486 5482 5479 5475 5471 5468 5464 5460 5456 5453 5449 5448 5446 5443 5440 5436 5433 5431 5428 5426 5423 5421 5418 5415 5413 5411 5408 5405 5403 5400 5397 5395 5394 5393 5391 5388 5385 5383 5382 5379 5376 5373 5370 5368 5364 5360 5358 5354 5352 5350 5347 5345 5343 5339 5336 5335 5335 5337 5337 5332 5326 5324 5324 5324 5321 5317 5317 5318 5316 5315 5315 5313 5312 5311 5310 5309
5507 5503 5500 5496 5493 5490 5487 5484 5480 5476 5472 5468 5465 5461 5458 5454 5450 5447 5443 5440 5439 5436 5433 5430 5426 5424 5421 5418 5416 5413 5411 5408 5405 5403 5401 5398 5395 5392 5389 5387 5385 5383 5381 5379 5376 5374 5371 5370 5367 5365 5362 5359 5356 5352 5348 5345 5342 5339 5337 5334 5331 5329 5326 5323 5321 5319 5319 5321 5319 5312 5308 5308 5309 5306 5301 5299 5300 5300 5299 5298 5297 5296 5296 5294 5294
5497 5493 5490 5486 5483 5479 5476 5473 5470 5466 5462 5458 5455 5451 5448 5444 5441 5437 5434 5431 5430 5427 5424 5420 5417 5415 5412 5409 5406 5403 5401 5398 5395 5393 5391 5388 5385 5382 5379 5376 5374 5372 5370 5367 5365 5362 5360 5358 5356 5353 5350 5348 5345 5341 5337 5333 5330 5327 5324 5321 5317 5314 5312 5309 5306 5304 5302 5303 5303 5298 5293 5291 5292 5291 5286 5283 5283 5284 5283 5283 5282 5281 5281 5280 5280
5487 5483 5480 5476 5473 5469 5465 5462 5459 5455 5452 5448 5445 5442 5438 5435 5431 5428 5425 5423 5421 5418 5415 5411 5408 5405 5403 5400 5397 5394 5391 5389 5386 5383 5380 5378 5375 5372 5368 5366 5363 5361 5359 5356 5353 5351 5349 5347 5344 5341 5338 5336 5333 5330 5326 5322 5318 5314 5310 5306 5302 5299 5296 5294 5290 5288 5286 5285 5285 5282 5278 5276 5276 5276 5272 5268 5267 5269 5268 5268 5268 5268 5268 5268 5268
5476 5473 5470 5466 5462 5458 5454 5451 5448 5444 5441 5438 5435 5431 5428 5425 5422 5420 5417 5414 5412 5409 5406 5402 5399 5396 5394 5391 5388 5385 5381 5379 5376 5373 5370 5367 5364 5361 5358 5355 5353 5351 5349 5346 5343 5340 5338 5335 5333 5329 5326 5324 5321 5317 5313 5309 5305 5300 5296 5291 5287 5284 5281 5279 5275 5272 5270 5269 5268 5266 5264 5261 5260 5261 5259 5254 5254 5256 5256 5256 5257 5257 5257 5258 5259
5467 5463 5460 5456 5452 5448 5444 5441 5437 5434 5430 5427 5425 5422 5418 5416 5413 5411 5408 5405 5403 5400 5397 5393 5391 5387 5385 5382 5378 5375 5372 5368 5366 5362 5359 5356 5352 5350 5347 5345 5343 5340 5338 5336 5333 5330 5328 5325 5321 5318 5314 5311 5307 5303 5299 5294 5290 5286 5282 5277 5272 5269 5266 5264 5260 5257 5255 5253 5253 5252 5250 5249 5248 5247 5245 5243 5243 5245 5244 5245 5247 5248 5247 5249 5251
5457 5453 5450 5446 5442 5438 5435 5431 5427 5423 5420 5417 5415 5412 5409 5407 5405 5402 5399 5396 5394 5391 5388 5384 5381 5378 5375 5372 5368 5365 5362 5358 5355 5352 5348 5345 5342 5340 5338 5335 5333 5330 5328 5325 5322 5319 5316 5313 5309 5306 5302 5298 5294 5289 5284 5279 5274 5271 5267 5261 5258 5255 5252 5249 5246 5244 5242 5240 5240 5239 5237 5237 5237 5235 5234 5233 5234 5235 5235 5236 5239 5240 5239 5240 5242
5447 5444 5440 5436 5432 5428 5425 5421 5417 5413 5410 5408 5405 5403 5400 5398 5396 5393 5390 5388 5385 5382 5378 5375 5372 5368 5365 5362 5358 5355 5352 5348 5345 5341 5337 5334 5332 5330 5328 5325 5323 5320 5317 5315 5312 5308 5305 5301 5297 5293 5289 5285 5280 5274 5269 5265 5260 5257 5252 5247 5244 5241 5238 5236 5234 5232 5230 5229 5228 5227 5225 5227 5227 5225 5224 5225 5225 5226 5227 5228 5230 5231 5231 5233 5235
5437 5434 5430 5426 5422 5418 5415 5411 5407 5404 5401 5399 5396 5394 5392 5389 5387 5384 5382 5379 5375 5372 5369 5365 5362 5359 5355 5352 5348 5345 5342 5338 5334 5331 5327 5324 5323 5321 5318 5315 5312 5310 5307 5304 5301 5297 5293 5289 5285 5281 5276 5271 5265 5259 5255 5251 5247 5243 5239 5235 5231 5228 5226 5225 5223 5222 5220 5219 5218 5216 5215 5217 5217 5215 5216 5217 5217 5218 5220 5221 5222 5223 5224 5226 5227
5427 5423 5419 5415 5412 5408 5405 5402 5398 5395 5393 5390 5388 5386 5383 5380 5378 5375 5373 5369 5366 5362 5359 5356 5352 5349 5345 5342 5339 5335 5332 5329 5325 5321 5317 5314 5312 5311 5308 5305 5301 5299 5297 5294 5290 5286 5281 5277 5272 5268 5263 5257 5251 5246 5242 5238 5234 5230 5227 5224 5221 5218 5216 5214 5213 5212 5210 5209 5209 5208 5207 5208 5208 5207 5208 5209 5209 5210 5212 5214 5215 5216 5217 5219 5220
5417 5413 5409 5406 5402 5398 5395 5393 5390 5387 5385 5382 5379 5377 5374 5372 5369 5366 5363 5360 5356 5353 5349 5346 5343 5339 5336 5332 5329 5326 5323 5319 5315 5311 5307 5304 5300 5299 5298 5296 5292 5289 5286 5282 5278 5274 5269 5264 5260 5255 5250 5244 5239 5234 5230 5227 5223 5219 5216 5214 5212 5210 5207 5205 5204 5203 5202 5200 5200 5200 5200 5199 5199 5201 5201 5201 5203 5204 5206 5208 5209 5209 5211 5212 5213
5407 5403 5399 5396 5392 5389 5386 5384 5382 5379 5376 5374 5371 5368 5365 5362 5360 5357 5354 5351 5347 5343 5340 5337 5333 5330 5327 5323 5320 5317 5313 5309 5305 5301 5297 5294 5290 5286 5285 5285 5283 5280 5276 5272 5268 5263 5258 5252 5248 5243 5237 5232 5228 5223 5219 5216 5213 5210 5207 5204 5203 5201 5199 5197 5196 5195 5194 5193 5192 5193 5192 5191 5192 5195 5195 5195 5197 5198 5199 5201 5202 5203 5204 5205 5206
5397 5393 5390 5386 5383 5380 5378 5375 5373 5371 5368 5365 5362 5359 5356 5354 5351 5348 5345 5341 5338 5335 5331 5328 5324 5321 5318 5314 5311 5308 5304 5299 5295 5291 5287 5284 5280 5276 5273 5272 5270 5268 5265 5261 5258 5253 5248 5243 5237 5232 5227 5222 5218 5213 5210 5207 5204 5201 5199 5197 5195 5192 5190 5189 5188 5186 5185 5184 5185 5186 5186 5186 5186 5188 5188 5189 5190 5192 5192 5194 5195 5195 5197 5198 5200
5387 5384 5380 5377 5375 5372 5370 5367 5365 5362 5359 5356 5354 5351 5348 5345 5342 5339 5336 5332 5329 5326 5322 5319 5316 5312 5308 5305 5302 5298 5294 5289 5285 5281 5277 5273 5269 5266 5264 5261 5258 5256 5253 5249 5244 5240 5237 5233 5228 5223 5218 5214 5209 5204 5201 5199 5197 5195 5192 5190 5188 5185 5183 5182 5181 5179 5178 5177 5178 5179 5181 5181 5182 5182 5182 5183 5184 5185 5185 5187 5189 5189 5190 5192 5194
5377 5375 5372 5369 5367 5364 5362 5359 5356 5354 5351 5348 5345 5342 5339 5336 5333 5330 5327 5323 5320 5317 5313 5310 5307 5303 5299 5296 5292 5288 5284 5279 5274 5270 5266 5262 5259 5256 5253 5250 5247 5244 5241 5236 5231 5227 5224 5221 5217 5214 5211 5206 5201 5196 5193 5191 5190 5189 5187 5185 5182 5179 5178 5176 5173 5172 5172 5171 5172 5173 5174 5175 5176 5177 5177 5177 5177 5177 5178 5180 5182 5182 5183 5185 5186
5369 5367 5364 5362 5359 5356 5353 5351 5348 5345 5342 5339 5336 5334 5331 5327 5324 5321 5317 5314 5311 5308 5304 5301 5298 5294 5290 5286 5282 5278 5274 5268 5264 5260 5256 5252 5248 5245 5242 5239 5236 5233 5229 5224 5220 5217 5214 5210 5206 5204 5202 5198 5193 5189 5185 5183 5182 5182 5181 5179 5177 5175 5173 5170 5167 5166 5165 5165 5166 5167 5168 5169 5169 5170 5171 5171 5172 5171 5171 5173 5174 5173 5174 5177 5178
5361 5359 5357 5354 5351 5348 5345 5342 5340 5337 5334 5331 5328 5325 5322 5319 5315 5312 5309 5305 5302 5299 5296 5292 5289 5285 5281 5277 5272 5268 5264 5259 5253 5249 5245 5241 5236 5233 5231 5227 5224 5221 5217 5213 5210 5207 5204 5201 5197 5194 5192 5190 5186 5182 5179 5176 5175 5174 5174 5173 5172 5171 5169 5165 5161 5160 5160 5159 5159 5159 5160 5161 5162 5163 5164 5165 5165 5164 5164 5166 5165 5165 5166 5168 5169
5354 5351 5349 5346 5343 5340 5337 5334 5331 5328 5325 5323 5319 5316 5313 5310 5307 5304 5300 5297 5293 5290 5287 5283 5280 5276 5271 5267 5263 5258 5254 5249 5243 5238 5235 5230 5225 5221 5218 5215 5212 5209 5206 5203 5201 5198 5195 5192 5189 5185 5183 5181 5179 5175 5172 5169 5167 5167 5166 5165 5165 5164 5161 5158 5157 5156 5154 5154 5153 5153 5153 5153 5154 5155 5157 5157 5157 5156 5156 5156 5156 5157 5158 5160 5160
5346 5343 5341 5338 5335 5332 5329 5326 5323 5320 5317 5314 5311 5308 5305 5301 5298 5295 5292 5288 5285 5281 5277 5274 5270 5267 5262 5257 5254 5249 5244 5239 5233 5228 5223 5219 5214 5209 5206 5204 5201 5198 5196 5194 5191 5189 5186 5183 5181 5178 5174 5173 5171 5168 5165 5162 5160 5159 5158 5158 5158 5156 5153 5152 5151 5150 5149 5148 5148 5147 5146 5146 5145 5146 5148 5149 5149 5148 5147 5147 5146 5147 5148 5151 5152
5338 5335 5333 5330 5327 5324 5321 5318 5315 5312 5310 5307 5303 5300 5296 5293 5290 5286 5283 5280 5276 5272 5268 5264 5261 5257 5253 5248 5244 5239 5235 5230 5224 5218 5212 5208 5203 5198 5195 5192 5190 5188 5187 5185 5183 5181 5178 5175 5172 5170 5167 5165 5163 5161 5158 5155 5153 5152 5151 5150 5149 5147 5146 5146 5146 5145 5144 5142 5141 5140 5140 5139 5138 5138 5138 5139 5140 5140 5139 5138 5137 5137 5138 5140 5142
5330 5327 5325 5322 5319 5316 5313 5311 5308 5305 5302 5298 5295 5292 5288 5285 5281 5277 5274 5271 5267 5263 5259 5255 5251 5247 5243 5238 5234 5229 5225 5220 5214 5208 5202 5196 5192 5188 5184 5182 5180 5178 5177 5176 5175 5172 5170 5167 5164 5162 5159 5158 5156 5154 5151 5149 5146 5145 5143 5141 5140 5139 5138 5137 5138 5138 5137 5136 5135 5134 5133 5132 5131 5130 5130 5130 5131 5131 5130 5129 5129 5128 5129 5130 5131
5322 5320 5317 5314 5312 5309 5306 5303 5300 5297 5294 5290 5287 5283 5280 5277 5273 5269 5265 5262 5258 5254 5250 5245 5241 5238 5233 5229 5224 5219 5215 5210 5204 5198 5192 5186 5181 5177 5174 5172 5170 5169 5168 5167 5165 5164 5161 5159 5156 5154 5152 5151 5149 5147 5144 5142 5140 5138 5136 5134 5132 5131 5130 5129 5129 5128 5128 5128 5128 5128 5128 5126 5125 5123 5122 5121 5120 5120 5120 5120 5120 5120 5120 5120 5120
5315 5312 5310 5307 5304 5301 5298 5295 5292 5289 5286 5282 5279 5275 5272 5268 5264 5260 5257 5253 5249 5245 5240 5236 5232 5228 5224 5219 5214 5209 5204 5200 5194 5188 5182 5176 5171 5167 5165 5163 5162 5160 5158 5157 5156 5154 5152 5150 5148 5146 5145 5144 5142 5140 5137 5135 5132 5130 5128 5127 5125 5124 5123 5122 5121 5119 5118 5118 5119 5119 5120 5120 5119 5117 5115 5113 5111 5111 5110 5111 5111 5111 5110 5110 5110
5307 5305 5302 5300 5297 5294 5291 5288 5284 5281 5277 5274 5271 5267 5263 5260 5256 5252 5247 5244 5240 5235 5231 5226 5221 5217 5213 5209 5204 5199 5194 5189 5184 5178 5172 5166 5161 5157 5155 5154 5153 5151 5149 5148 5146 5145 5143 5141 5140 5139 5137 5135 5134 5132 5130 5128 5125 5123 5121 5119 5117 5116 5115 5114 5113 5111 5110 5109 5109 5109 5110 5110 5110 5109 5107 5105 5104 5103 5101 5101 5101 5101 5100 5099 5099
5300 5298 5295 5292 5289 5286 5283 5280 5277 5273 5270 5266 5262 5258 5255 5251 5248 5243 5238 5234 5230 5226 5221 5217 5212 5207 5203 5199 5194 5189 5184 5178 5173 5168 5162 5157 5152 5149 5146 5145 5144 5142 5141 5139 5137 5136 5135 5133 5132 5130 5128 5126 5124 5123 5121 5120 5118 5116 5114 5112 5110 5108 5107 5106 5104 5103 5101 5101 5100 5099 5099 5098 5098 5098 5098 5097 5096 5095 5093 5091 5091 5091 5091 5089 5089
5293 5290 5288 5284 5282 5279 5275 5272 5269 5266 5262 5259 5255 5250 5246 5242 5238 5234 5229 5225 5221 5216 5212 5207 5202 5197 5193 5189 5184 5179 5174 5167 5162 5157 5153 5148 5143 5140 5138 5137 5135 5133 5132 5130 5128 5127 5126 5126 5124 5122 5119 5117 5115 5114 5112 5110 5109 5107 5106 5104 5102 5100 5098 5096 5095 5094 5093 5091 5090 5089 5088 5087 5086 5086 5086 5086 5086 5085 5084 5083 5082 5081 5081 5079 5079
5286 5283 5280 5277 5274 5271 5268 5265 5262 5258 5255 5251 5247 5242 5238 5234 5230 5225 5220 5215 5211 5206 5202 5197 5192 5187 5183 5179 5174 5170 5165 5158 5151 5146 5142 5138 5135 5133 5131 5129 5126 5124 5122 5121 5120 5119 5118 5117 5116 5114 5111 5110 5108 5106 5104 5102 5100 5098 5096 5094 5092 5090 5088 5087 5086 5085 5083 5081 5079 5078 5077 5076 5075 5075 5074 5073 5073 5073 5073 5072 5072 5071 5069 5069 5070
5279 5276 5273 5270 5267 5263 5260 5257 5254 5251 5247 5243 5239 5234 5229 5224 5220 5216 5212 5206 5201 5196 5192 5187 5182 5178 5174 5169 5164 5159 5154 5148 5141 5136 5132 5129 5126 5125 5123 5121 5119 5117 5114 5112 5111 5111 5110 5108 5107 5105 5102 5101 5099 5098 5096 5093 5091 5090 5088 5085 5083 5081 5079 5077 5075 5074 5072 5070 5068 5067 5066 5065 5064 5063 5062 5061 5060 5060 5059 5059 5059 5059 5058 5058 5059
5272 5269 5266 5262 5259 5256 5253 5250 5246 5243 5239 5235 5231 5227 5222 5216 5210 5206 5202 5198 5192 5186 5181 5177 5172 5167 5164 5160 5155 5149 5144 5138 5132 5127 5122 5120 5118 5116 5115 5113 5111 5110 5108 5106 5104 5103 5102 5100 5099 5097 5095 5093 5091 5088 5086 5084 5082 5080 5077 5075 5073 5070 5068 5067 5065 5062 5060 5058 5057 5056 5054 5053 5051 5050 5049 5048 5047 5047 5046 5046 5046 5046 5046 5046 5046
5264 5261 5258 5255 5252 5249 5246 5242 5239 5235 5231 5227 5222 5218 5214 5209 5203 5197 5192 5187 5183 5178 5172 5167 5162 5157 5152 5148 5143 5139 5135 5130 5124 5119 5114 5111 5109 5107 5106 5104 5102 5101 5099 5097 5096 5095 5094 5092 5090 5089 5086 5085 5083 5080 5078 5075 5073 5070 5067 5065 5062 5059 5057 5055 5053 5050 5048 5046 5044 5043 5041 5039 5038 5036 5035 5034 5033 5033 5033 5033 5032 5032 5032 5033 5034
5257 5254 5251 5248 5245 5241 5238 5235 5231 5227 5223 5219 5214 5210 5205 5201 5196 5191 5184 5178 5173 5168 5163 5158 5154 5148 5142 5137 5131 5127 5123 5120 5116 5112 5108 5105 5103 5101 5099 5097 5094 5092 5090 5088 5087 5086 5084 5082 5081 5079 5077 5074 5072 5070 5068 5066 5064 5061 5058 5056 5053 5050 5047 5044 5042 5039 5037 5034 5032 5029 5027 5025 5023 5022 5021 5020 5019 5019 5019 5019 5019 5018 5018 5019 5021
5250 5247 5244 5241 5237 5234 5230 5227 5223 5219 5215 5210 5206 5201 5197 5192 5188 5183 5178 5172 5165 5159 5154 5149 5144 5139 5134 5128 5122 5117 5112 5108 5105 5103 5101 5099 5097 5095 5093 5092 5089 5085 5082 5081 5079 5078 5076 5074 5072 5070 5067 5065 5062 5060 5057 5055 5052 5049 5047 5044 5042 5040 5037 5034 5031 5028 5026 5023 5020 5017 5014 5011 5009 5006 5005 5004 5003 5003 5003 5004 5005 5004 5005 5006 5007
5243 5240 5237 5234 5230 5226 5223 5219 5215 5211 5206 5202 5197 5193 5188 5184 5179 5174 5169 5165 5159 5153 5147 5140 5135 5130 5125 5119 5113 5108 5103 5099 5096 5094 5092 5091 5089 5088 5086 5084 5082 5078 5075 5073 5071 5069 5067 5065 5063 5061 5058 5056 5053 5050 5047 5044 5041 5038 5034 5031 5028 5026 5024 5022 5019 5017 5013 5010 5008 5005 5001 4998 4995 4992 4990 4988 4987 4987 4988 4989 4989 4990 4991 4992 4993
5237 5233 5230 5227 5223 5219 5215 5211 5207 5202 5198 5193 5189 5184 5180 5175 5170 5165 5160 5155 5151 5146 5140 5133 5127 5122 5117 5112 5106 5101 5096 5092 5089 5086 5084 5082 5081 5079 5078 5076 5073 5071 5068 5064 5062 5060 5058 5056 5053 5051 5049 5046 5043 5039 5036 5033 5029 5026 5022 5018 5014 5011 5007 5005 5002 5000 4998 4995 4993 4990 4987 4984 4982 4979 4976 4974 4972 4972 4972 4972 4973 4975 4976 4977 4979
5230 5226 5223 5219 5215 5211 5207 5203 5198 5194 5190 5185 5180 5176 5171 5166 5161 5157 5152 5147 5142 5137 5132 5126 5120 5115 5109 5104 5099 5095 5091 5087 5084 5081 5078 5076 5073 5071 5070 5068 5065 5063 5060 5057 5054 5052 5049 5046 5044 5041 5038 5035 5032 5029 5025 5021 5017 5014 5010 5006 5001 4997 4993 4988 4984 4981 4979 4977 4976 4974 4972 4969 4967 4964 4962 4961 4960 4959 4958 4958 4958 4960 4961 4962 4964
5223 5219 5216 5212 5208 5204 5199 5195 5190 5186 5182 5177 5172 5167 5163 5158 5153 5148 5144 5139 5134 5128 5123 5118 5113 5107 5102 5097 5093 5089 5086 5082 5079 5076 5073 5070 5067 5065 5062 5060 5058 5055 5053 5050 5047 5044 5041 5038 5034 5031 5027 5024 5021 5017 5014 5009 5005 5001 4997 4993 4988 4984 4979 4974 4969 4965 4962 4959 4958 4956 4954 4953 4952 4950 4948 4947 4946 4946 4945 4945 4945 4946 4947 4949 4950
5216 5212 5208 5204 5200 5196 5191 5187 5182 5178 5173 5169 5164 5159 5155 5150 5145 5140 5136 5131 5126 5121 5116 5110 5105 5100 5095 5091 5087 5083 5081 5077 5074 5071 5067 5064 5061 5059 5056 5054 5051 5049 5046 5043 5039 5036 5033 5029 5025 5021 5017 5013 5009 5005 5001 4997 4993 4988 4983 4979 4974 4969 4965 4960 4956 4951 4948 4945 4942 4940 4938 4937 4936 4934 4933 4932 4932 4932 4932 4932 4933 4934 4935 4936 4938
5209 5205 5201 5196 5192 5188 5183 5179 5174 5169 5165 5160 5155 5151 5146 5141 5137 5132 5127 5123 5118 5113 5108 5103 5098 5093 5088 5084 5080 5078 5075 5072 5069 5065 5062 5059 5056 5053 5050 5048 5045 5042 5039 5035 5032 5028 5025 5021 5017 5012 5008 5003 4999 4994 4989 4985 4980 4975 4969 4964 4959 4954 4950 4946 4942 4938 4934 4931 4928 4926 4924 4922 4921 4919 4918 4917 4917 4918 4918 4919 4920 4921 4923 4925 4927
5202 5197 5193 5189 5184 5180 5175 5170 5166 5161 5156 5152 5147 5142 5138 5133 5128 5124 5119 5114 5110 5105 5101 5096 5091 5086 5081 5078 5074 5071 5069 5066 5063 5060 5057 5054 5050 5047 5044 5041 5038 5034 5031 5027 5023 5019 5015 5011 5007 5002 4997 4992 4987 4982 4977 4971 4966 4961 4956 4950 4945 4940 4935 4931 4927 4923 4920 4917 4914 4911 4909 4907 4906 4905 4904 4903 4903 4903 4904 4906 4908 4909 4911 4913 4915
5195 5190 5185 5181 5176 5172 5167 5162 5157 5153 5148 5143 5138 5134 5129 5124 5120 5115 5111 5106 5102 5098 5093 5089 5084 5079 5075 5071 5068 5065 5062 5060 5057 5054 5051 5048 5045 5041 5038 5034 5030 5027 5023 5018 5014 5010 5005 5001 4996 4990 4985 4980 4974 4968 4963 4957 4952 4946 4941 4936 4931 4927 4922 4916 4912 4908 4905 4902 4900 4898 4896 4894 4892 4891 4891 4890 4890 4890 4892 4893 4895 4897 4900 4902 4905
5187 5182 5178 5173 5168 5163 5159 5154 5149 5144 5139 5135 5130 5125 5120 5116 5111 5106 5102 5098 5094 5090 5086 5081 5077 5072 5068 5065 5062 5059 5056 5053 5051 5048 5045 5042 5038 5035 5031 5027 5023 5018 5014 5010 5005 5000 4995 4990 4985 4979 4973 4967 4961 4954 4949 4943 4937 4932 4927 4922 4917 4912 4907 4902 4898 4894 4891 4888 4886 4884 4883 4881 4880 4879 4878 4878 4879 4879 4881 4882 4885 4887 4889 4892 4895
5179 5175 5170 5165 5160 5155 5150 5145 5141 5136 5131 5126 5121 5116 5111 5106 5102 5098 5094 5089 5085 5081 5078 5074 5070 5066 5062 5059 5056 5053 5050 5047 5044 5041 5038 5035 5031 5028 5024 5019 5015 5011 5006 5001 4996 4991 4985 4979 4973 4967 4961 4954 4948 4941 4935 4930 4924 4919 4913 4908 4903 4898 4893 4888 4884 4881 4878 4876 4874 4871 4870 4869 4869 4868 4868 4868 4869 4870 4871 4873 4875 4878 4880 4883 4886
5171 5167 5162 5157 5152 5146 5141 5136 5131 5127 5122 5117 5112 5107 5102 5098 5093 5089 5085 5082 5078 5074 5070 5066 5062 5058 5055 5053 5050 5047 5044 5042 5039 5035 5032 5029 5025 5021 5017 5012 5008 5003 4998 4993 4987 4981 4975 4969 4962 4956 4949 4942 4936 4930 4923 4917 4911 4906 4900 4895 4889 4884 4880 4876 4872 4869 4866 4864 4863 4861 4859 4859 4859 4859 4859 4859 4860 4861 4863 4864 4867 4869 4873 4875 4879
5163 5158 5153 5148 5143 5137 5132 5127 5121 5116 5112 5107 5102 5098 5093 5089 5085 5081 5077 5073 5070 5066 5062 5058 5055 5051 5049 5047 5044 5042 5039 5036 5033 5029 5026 5022 5018 5014 5009 5005 5000 4995 4989 4983 4977 4971 4964 4958 4951 4945 4939 4932 4925 4919 4912 4906 4900 4894 4888 4883 4878 4873 4869 4865 4862 4859 4856 4854 4852 4851 4851 4850 4850 4850 4851 4852 4853 4854 4856 4857 4860 4863 4866 4869 4872
5155 5150 5144 5139 5133 5128 5122 5117 5112 5107 5102 5097 5093 5088 5084 5080 5076 5072 5068 5065 5061 5058 5054 5051 5047 5045 5043 5041 5038 5036 5033 5030 5027 5024 5020 5016 5011 5007 5002 4997 4992 4986 4980 4974 4968 4961 4954 4948 4941 4935 4929 4922 4916 4909 4902 4895 4889 4883 4878 4872 4868 4863 4859 4856 4853 4850 4847 4845 4844 4843 4843 4843 4843 4844 4844 4845 4846 4848 4850 4852 4854 4857 4861 4864 4867
5146 5141 5135 5129 5124 5118 5112 5107 5102 5097 5092 5087 5083 5079 5075 5071 5067 5063 5060 5056 5053 5049 5046 5043 5041 5039 5037 5035 5033 5031 5028 5025 5021 5018 5014 5009 5005 5000 4995 4990 4984 4978 4972 4965 4959 4952 4945 4939 4933 4927 4920 4913 4906 4899 4892 4885 4879 4874 4869 4864 4860 4855 4851 4848 4845 4842 4840 4838 4837 4837 4837 4837 4838 4838 4839 4840 4841 4843 4845 4848 4850 4853 4857 4860 4863
5137 5132 5126 5120 5114 5108 5102 5096 5091 5086 5082 5077 5073 5069 5065 5062 5058 5054 5051 5048 5045 5042 5039 5037 5035 5033 5032 5030 5028 5026 5023 5019 5016 5012 5008 5003 4999 4994 4989 4983 4977 4971 4964 4957 4950 4944 4937 4931 4925 4919 4912 4905 4898 4890 4883 4877 4871 4866 4861 4857 4853 4849 4845 4841 4839 4836 4835 4833 4832 4832 4832 4833 4833 4834 4835 4836 4838 4840 4842 4845 4848 4851 4854 4857 4860
5128 5122 5116 5110 5103 5097 5091 5086 5080 5076 5071 5067 5063 5059 5056 5052 5049 5046 5043 5041 5038 5036 5034 5032 5031 5029 5028 5026 5023 5021 5018 5014 5010 5006 5002 4997 4993 4987 4982 4976 4970 4963 4956 4949 4943 4936 4930 4924 4918 4911 4904 4897 4890 4883 4876 4870 4865 4860 4856 4851 4848 4844 4840 4837 4834 4832 4831 4830 4829 4829 4829 4830 4830 4831 4832 4834 4836 4838 4840 4843 4846 4849 4852 4855 4858
5119 5113 5106 5099 5093 5086 5080 5075 5070 5065 5061 5057 5053 5050 5047 5044 5041 5038 5036 5034 5033 5031 5029 5028 5027 5025 5024 5022 5019 5016 5013 5009 5005 5001 4997 4992 4987 4981 4976 4969 4963 4956 4949 4942 4936 4930 4924 4918 4912 4905 4898 4890 4883 4877 4871 4865 4861 4856 4852 4848 4844 4841 4837 4834 4832 4830 4829 4828 4827 4827 4827 4828 4829 4830 4831 4833 4835 4837 4840 4842 4845 4848 4851 4854 4857